Retour au catalogue

QZS-1

MICHIBIKI

ActifNavigationMEO
NORAD 37158·PAYLOAD·🇯🇵 Japan

Lancé Sep 11, 2010 depuis Tanegashima Space Center

Loading…

Prochains Passages (prochaines 24 heures)

TLE

FraisSource: Space-Track

Époque: Sep 14, 2026, 04:56 UTC

1 37158U 10045A   26257.20583920  .00000010  00000-0  00000-0 0  9996
2 37158  44.3400 115.4147 0007639  55.8953 162.6006  0.87715528 57178

Suivez QZS-1 en temps réel avec AllMySat

Download on the App Store